COSMOS 2251 DEB, 34120

Orbit data source: Space-Track

COSMOS 2251 DEB, 34120 is space debris in LEO originally from a launch on Wed, 16 Jun 1993 UTC launched from the Plesetsk Missile And Space Complex (PKMTR). The debris from Iridium 33, an American commercial communications satellite, has been tracked extensively since its accidental collision with the defunct Russian satellite Cosmos 2251 in 2009. This event, occurring at high speed in low Earth orbit (LEO), generated thousands of pieces of space debris, significantly increasing the risk of further collisions. The Iridium 33 debris cloud has impacted space traffic management and orbital debris mitigation strategies, making it a subject of ongoing study in space situational awareness.

Loading next visibility...
Identifier
34120, 1993-036KR
Orbit
LEO
Country
Flag of CISCIS
Related business
Manufacturer
Unknown
Mission
Spacecraft
Bus & Motor
Unknown
Mass
Unknown
Launch date (UTC)
1993-06-16 (33 years ago)
Launch vehicle
Unknown
Launch site
Plesetsk Missile And Space Complex (PKMTR)
Object type
Payload
Rocket body
Debris
Shape & HBR
Unknown shape, 0.2 m
Radar Cross Section
Medium (>0.1 m² and <1 m²)

Expand to show TLE details & history
Last TLE update: 2 days ago

TLE from 2 days ago
0 COSMOS 2251 DEB
1 34120U 93036KR  26171.38829641  .00000175  00000-0  11951-3 0  9992
2 34120  73.9917 247.6475 0182414  33.7466  44.1156 13.98867068886326
Epoch: 2026-06-20T09:19Z
TLE epoch observation values (Epoch: 2026-06-20T09:19:08.809Z)
Latitude
70.93299°
Longitude
-105.08773°
Altitude
815.504 km
Speed
7.5 km/s
True Right ascension
20h 13m 12s
True Declination
70° 49' 39"
Sunlit
Object was in daylight at epoch
Visualization orbit readout
Latitude
Unknown
Longitude
Unknown
Altitude
Unknown
Speed
Unknown
Apparent Right ascension
Unknown
Apparent Declination
Unknown
Sunlit
N/A
Visualization observer readout
Local Sidereal Time
06:06:41
Azimuth
Unknown
Elevation
Unknown
Doppler factor
Unknown
Orbital elements
Apogee altitude
1,028.068 km
Perigee altitude
762.709 km
Semi-major axis
7,273.526 km
Eccentricity
0.01824
Inclination
73.9917°
RAAN
247.6475°
Arg. of periapsis
33.7466°
True anomaly
45.59472°
Mean anomaly
44.1156°
Eccentric anomaly
44.85273°
Mean motion
3.49885 °/min
Orbital period
102.89 mins
BSTAR
0.00011951

Documentation

Showing up to 5 results
|